Weather History for Dublin, Ireland

Change the Weather History Date:

Saturday, April 27, 2013

  Actual Average Record
Temperature  
Mean Temperature 43 °F -  
Max Temperature 51 °F 58 °F 60 °F (2006)
Min Temperature 35 °F 44 °F 33 °F (1998)
Degree Days  
Heating Degree Days 22    
Moisture  
Dew Point 35 °F    
Average Humidity 71    
Maximum Humidity 93    
Minimum Humidity 48    
Precipitation  
Precipitation 0.00 in 0.07 in - ()
Sea Level Pressure  
Sea Level Pressure 30.12 in    
Wind  
Wind Speed 11 mph ()    
Max Wind Speed 16 mph    
Max Gust Speed -    
Visibility 6.5 miles    
Events      
Averages and records for this station are not official NWS values.
T = Trace of Precipitation, MM = Missing Value Source: Averaged Metar Reports

Daily Weather History Graph

Daily Weather History Graph

Search for Another Location

Airport:

Trip Planner

Search our weather history database for the weather conditions in past years. The results will help you decide how hot, cold, wet, or windy it might be!

Date:

Astronomy

Apr. 27, 2013 Rise Set
Actual Time 5:58 AM IST 8:47 PM IST
Civil Twilight 5:19 AM IST 9:27 PM IST
Nautical Twilight 4:27 AM IST 10:19 PM IST
Astronomical Twilight 3:22 AM IST 11:26 PM IST
Moon 11:18 PM IST (4/27) 6:52 AM IST (4/27)
Length of Visible Light 16h 08m
Length of Day
14h 49m
Waning Gibbous, 96% of the Moon is Illuminated
Apr 27
Waning Gibbous
May 2
Last Quarter
May 10
New
May 18
First Quarter
May 25
Full

Hourly Weather History & Observations

Time (IST) Temp. Windchill Dew Point Humidity Pressure Visibility Wind Dir Wind Speed Gust Speed Precip Events Conditions
12:00 AM 42.8 °F 36.2 °F 33.8 °F 70% 30.06 in 6.2 mi WNW 12.7 mph - N/A   Mostly Cloudy
12:30 AM 41.0 °F 34.3 °F 33.8 °F 76% 30.09 in 6.2 mi WNW 11.5 mph - N/A   Mostly Cloudy
1:00 AM 38 °F - 33 °F 76% 30.10 in 25 mi West 11.2 mph - -   Partly Cloudy
1:00 AM 39.2 °F 31.6 °F 33.8 °F 81% 30.09 in 6.2 mi West 12.7 mph - N/A   Scattered Clouds
1:30 AM 37.4 °F 30.3 °F 33.8 °F 87% 30.09 in 6.2 mi West 10.4 mph - N/A   Partly Cloudy
2:00 AM 39.2 °F 30.8 °F 33.8 °F 81% 30.09 in 6.2 mi West 15.0 mph - N/A   Mostly Cloudy
2:30 AM 39.2 °F 31.6 °F 33.8 °F 81% 30.06 in 6.2 mi West 12.7 mph - N/A   Mostly Cloudy
3:00 AM 39.2 °F 32.0 °F 33.8 °F 81% 30.06 in 6.2 mi WNW 11.5 mph - N/A   Mostly Cloudy
3:30 AM 39.2 °F 31.6 °F 33.8 °F 81% 30.06 in 6.2 mi WNW 12.7 mph - N/A   Mostly Cloudy
4:00 AM 39.2 °F 30.5 °F 33.8 °F 81% 30.06 in 6.2 mi NW 16.1 mph - N/A   Scattered Clouds
4:30 AM 39.2 °F 31.6 °F 33.8 °F 81% 30.09 in 6.2 mi WNW 12.7 mph - N/A   Mostly Cloudy
5:00 AM 39.2 °F 31.2 °F 33.8 °F 81% 30.09 in 6.2 mi NW 13.8 mph - N/A   Partly Cloudy
5:30 AM 37.4 °F 29.3 °F 33.8 °F 87% 30.09 in 6.2 mi NW 12.7 mph - N/A   Partly Cloudy
6:00 AM 35.6 °F 27.5 °F 33.8 °F 93% 30.09 in 6.2 mi NW 11.5 mph - N/A   Partly Cloudy
6:30 AM 37.4 °F 28.9 °F 33.8 °F 87% 30.09 in 6.2 mi NNW 13.8 mph - N/A   Partly Cloudy
7:00 AM 38 °F - 35 °F 82% 30.14 in 19 mi NNW 13.4 mph - -   Scattered Clouds
7:00 AM 37.4 °F 28.9 °F 33.8 °F 87% 30.12 in 6.2 mi NNW 13.8 mph - N/A   Partly Cloudy
7:30 AM 39.2 °F 31.2 °F 35.6 °F 87% 30.12 in 6.2 mi NNW 13.8 mph - N/A   Partly Cloudy
8:00 AM 41.0 °F 33.5 °F 35.6 °F 81% 30.12 in 6.2 mi NNW 13.8 mph - N/A   Partly Cloudy
8:30 AM 42.8 °F 35.8 °F 37.4 °F 81% 30.15 in 6.2 mi NNW 13.8 mph - N/A   Scattered Clouds
9:00 AM 42.8 °F 36.6 °F 35.6 °F 76% 30.15 in 6.2 mi North 11.5 mph - N/A   Scattered Clouds
9:30 AM 44.6 °F 38.1 °F 35.6 °F 71% 30.15 in 6.2 mi North 13.8 mph - N/A   Scattered Clouds
10:00 AM 46.4 °F 40.4 °F 37.4 °F 71% 30.15 in 6.2 mi North 13.8 mph - N/A   Scattered Clouds
10:30 AM 46.4 °F 39.8 °F 33.8 °F 62% 30.15 in 6.2 mi North 16.1 mph - N/A   Scattered Clouds
11:00 AM 48.2 °F - 35.6 °F 62% 30.15 in 6.2 mi NNE 15.0 mph - N/A   Scattered Clouds
11:30 AM 48.2 °F - 35.6 °F 62% 30.18 in 6.2 mi North 13.8 mph - N/A   Scattered Clouds
12:00 PM 50.0 °F - 33.8 °F 54% 30.18 in 6.2 mi NNE 12.7 mph - N/A   Scattered Clouds
12:30 PM 48.2 °F - 32.0 °F 54% 30.18 in 6.2 mi NNE 11.5 mph - N/A   Scattered Clouds
1:00 PM 48 °F - 34 °F 48% 30.19 in 37 mi NNE 11.2 mph - -   Partly Cloudy
1:00 PM 48.2 °F - 33.8 °F 58% 30.18 in 6.2 mi NNE 12.7 mph - N/A   Scattered Clouds
1:30 PM 48.2 °F - 35.6 °F 62% 30.18 in 6.2 mi NNE 10.4 mph - N/A   Scattered Clouds
2:00 PM 50.0 °F - 35.6 °F 58% 30.15 in 6.2 mi East 9.2 mph - N/A   Scattered Clouds
2:30 PM 51.8 °F - 39.2 °F 62% 30.15 in 6.2 mi ENE 10.4 mph - N/A   Scattered Clouds
3:00 PM 50.0 °F - 39.2 °F 66% 30.15 in 6.2 mi East 9.2 mph - N/A   Scattered Clouds
3:30 PM 48.2 °F - 35.6 °F 62% 30.15 in 6.2 mi ENE 6.9 mph - N/A   Scattered Clouds
4:00 PM 50.0 °F - 37.4 °F 62% 30.15 in 6.2 mi ESE 6.9 mph - N/A   Scattered Clouds
4:30 PM 48.2 °F - 35.6 °F 62% 30.15 in 6.2 mi East 9.2 mph - N/A   Scattered Clouds
5:00 PM 48.2 °F - 35.6 °F 62% 30.15 in 6.2 mi East 5.8 mph - N/A   Scattered Clouds
5:30 PM 48.2 °F - 35.6 °F 62% 30.12 in 6.2 mi SE 6.9 mph - N/A   Scattered Clouds
6:00 PM 48.2 °F - 35.6 °F 62% 30.15 in 6.2 mi SE 6.9 mph - N/A   Scattered Clouds
6:30 PM 48.2 °F - 35.6 °F 62% 30.12 in 6.2 mi ESE 6.9 mph - N/A   Scattered Clouds
7:00 PM 48 °F - 36 °F 51% 30.14 in 37 mi SE 8.9 mph - -   Partly Cloudy
7:00 PM 48.2 °F - 35.6 °F 62% 30.12 in 6.2 mi SE 9.2 mph - N/A   Scattered Clouds
7:30 PM 46.4 °F 41.9 °F 35.6 °F 66% 30.12 in 6.2 mi SE 9.2 mph - N/A   Scattered Clouds
8:00 PM 46.4 °F 42.4 °F 33.8 °F 62% 30.12 in 6.2 mi SE 8.1 mph - N/A   Scattered Clouds
8:30 PM 46.4 °F 42.9 °F 37.4 °F 71% 30.12 in 6.2 mi SSE 6.9 mph - N/A   Mostly Cloudy
9:00 PM 46.4 °F 44.3 °F 35.6 °F 66% 30.12 in 6.2 mi SSE 4.6 mph - N/A   Mostly Cloudy
9:30 PM 44.6 °F 42.2 °F 35.6 °F 71% 30.12 in 6.2 mi SSE 4.6 mph - N/A   Mostly Cloudy
10:00 PM 42.8 °F 41.1 °F 35.6 °F 76% 30.12 in 6.2 mi Variable 3.5 mph - N/A   Mostly Cloudy
10:30 PM 41.0 °F 37.1 °F 35.6 °F 81% 30.12 in 6.2 mi WNW 5.8 mph - N/A   Mostly Cloudy
11:00 PM 44.6 °F 40.7 °F 35.6 °F 71% 30.12 in 6.2 mi West 6.9 mph - N/A   Mostly Cloudy
11:30 PM 44.6 °F 40.7 °F 35.6 °F 71% 30.12 in 6.2 mi West 6.9 mph - N/A   Mostly Cloudy